Location: Cahas Mountain Overlook
(37.0833°N, 80.1000°W)
Time: 19:37:55
(UTC-04:00)

Tiros 1 - Pass Details

Date: 12 February 2026
Orbit: 618 x 649 km, 48.4° (Epoch: 13 March)

Event Time Altitude Azimuth Distance (km) Brightness Sun altitude
Rises 09:23:53 0° 202° (SSW) 2,895 10.7 22.4°
Reaches altitude 10° 09:26:30 10° 189° (S) 1,986 10.2 22.8°
Maximum altitude 09:30:14 25° 134° (SE) 1,251 12.2 23.4°
Drops below altitude 10° 09:33:58 10° 79° (ENE) 1,982 10.3 23.9°
Sets 09:36:35 0° 66° (ENE) 2,887 10.8 24.3°
